Paganella, Italy

4:06 AM CEST on April 28, 2017 (GMT +0200)
Paganella

Weather History for LIVP - May, 2013

Change the Weather History Date:

Friday, May 3, 2013

  Actual Average Record
Temperature  
Mean Temperature 40 °F -  
Max Temperature 45 °F 45 °F 51 °F (1997)
Min Temperature 34 °F 34 °F 28 °F (2014)
Degree Days  
Heating Degree Days 26    
Moisture  
Dew Point 32 °F    
Average Humidity 76    
Maximum Humidity 93    
Minimum Humidity 50    
Precipitation  
Precipitation 0.01 in 0.09 in - ()
Sea Level Pressure  
Sea Level Pressure 30.01 in    
Wind  
Wind Speed 12 mph ()    
Max Wind Speed 38 mph    
Max Gust Speed 51 mph    
Visibility 6.6 miles    
Events Fog , Rain , Thunderstorm    
Averages and records for this station are not official NWS values.
T = Trace of Precipitation, MM = Missing Value Source: Averaged Metar Reports

Daily Weather History Graph

Daily Weather History Graph

Search for Another Location

Airport or City:

Trip Planner

Search our weather history database for the weather conditions in past years. The results will help you decide how hot, cold, wet, or windy it might be!

Date:

Astronomy

May. 03, 2013 Rise Set
Actual Time 5:59 AM CEST 8:26 PM CEST
Civil Twilight 5:25 AM CEST 9:00 PM CEST
Nautical Twilight 4:44 AM CEST 9:42 PM CEST
Astronomical Twilight 3:56 AM CEST 10:30 PM CEST
Moon 2:36 AM CEST (5/3) 1:42 PM CEST (5/3)
Length of Visible Light 15h 34m
Length of Day
14h 27m
Last Quarter, 40% of the Moon is Illuminated
May 3
Last Quarter
May 10
New
May 18
First Quarter
May 25
Full
May 31
Last Quarter

Hourly Weather History & Observations

Time (CEST) Temp. Windchill Dew Point Humidity Pressure Visibility Wind Dir Wind Speed Gust Speed Precip Events Conditions
12:55 AM 35.6 °F 28.0 °F 33.8 °F 93% 30.04 in 0.6 mi NNE 10.4 mph - N/A Fog , Rain Light Rain
1:55 AM 35.6 °F 28.0 °F 33.8 °F 93% 30.04 in 0.6 mi NNE 10.4 mph - N/A Fog , Rain Light Rain
2:00 AM 36 °F - 34 °F 91%  in 1 mi NNE 10.4 mph - - Rain Light Rain
2:55 AM 35.6 °F 28.0 °F 32.0 °F 87% 30.01 in 6.2 mi NNE 10.4 mph - N/A   Scattered Clouds
3:55 AM 35.6 °F 28.6 °F 32.0 °F 87% 29.98 in 6.2 mi North 9.2 mph - N/A   Scattered Clouds
4:55 AM 37.4 °F 33.8 °F 30.2 °F 75% 30.01 in 6.2 mi NNW 4.6 mph - N/A   Partly Cloudy
5:00 AM 37 °F - 31 °F 71%  in 19 mi NNW 4.6 mph - -   Partly Cloudy
5:55 AM 37.4 °F - 30.2 °F 75% 30.01 in - Variable 2.3 mph - N/A   Clear
6:55 AM 37.4 °F 32.8 °F 30.2 °F 75% 29.98 in - ENE 5.8 mph - N/A   Clear
7:55 AM 39.2 °F 35.0 °F 32.0 °F 75% 29.98 in - East 5.8 mph - N/A   Clear
8:00 AM 39 °F - 31 °F 64%  in 31 mi East 5.8 mph - -   Partly Cloudy
8:55 AM 41.0 °F 38.0 °F 32.0 °F 70% 30.01 in - South 4.6 mph - N/A   Clear
9:55 AM 41.0 °F 35.2 °F 30.2 °F 65% 30.01 in - SW 9.2 mph - N/A   Clear
10:55 AM 41.0 °F 32.8 °F 32.0 °F 70% 30.01 in - SW 16.1 mph - N/A   Clear
11:00 AM 41 °F - 32 °F 62%  in 31 mi SW 16.1 mph - -  
11:55 AM 42.8 °F 35.1 °F 33.8 °F 70% 30.04 in - SSW 16.1 mph - N/A   Clear
12:55 PM 42.8 °F 34.8 °F 33.8 °F 70% 30.04 in 6.2 mi SSW 17.3 mph - N/A   Partly Cloudy
1:55 PM 44.6 °F 38.1 °F 32.0 °F 61% 30.01 in 6.2 mi South 13.8 mph 25.3 mph N/A   Scattered Clouds
2:00 PM 44 °F - 32 °F 50%  in 28 mi South 13.8 mph - -   Partly Cloudy
2:55 PM 44.6 °F 36.9 °F 30.2 °F 57% 30.01 in 6.2 mi SSW 18.4 mph - N/A   Partly Cloudy
3:55 PM 42.8 °F 33.8 °F 35.6 °F 76% 30.01 in 6.2 mi SSW 21.9 mph 33.4 mph N/A   Scattered Clouds
4:55 PM 41.0 °F 30.0 °F 35.6 °F 81% 29.98 in 6.2 mi SSW 28.8 mph 44.9 mph N/A   Partly Cloudy
5:00 PM 41 °F - 36 °F 76%  in 16 mi SSW 28.8 mph - -   Mostly Cloudy
5:55 PM 39.2 °F 28.3 °F 35.6 °F 87% 29.98 in 6.2 mi SSW 25.3 mph - N/A   Scattered Clouds
6:55 PM 37.4 °F 23.6 °F 32.0 °F 81% 29.98 in 6.2 mi WSW 38.0 mph 50.6 mph N/A Rain Light Rain Showers
7:29 PM 35.6 °F 22.3 °F 30.2 °F 81% 29.98 in 6.2 mi SW 31.1 mph 48.3 mph N/A Rain , Thunderstorm Light Thunderstorms and Rain
7:55 PM 35.6 °F 23.7 °F 30.2 °F 81% 29.98 in 6.2 mi SW 24.2 mph 35.7 mph N/A   Scattered Clouds
8:00 PM 36 °F - 31 °F 73%  in 7 mi SW 24.2 mph - - Rain , Thunderstorm Thunderstorms and Rain
8:26 PM 37.4 °F 26.6 °F 33.8 °F 87% 30.01 in 6.2 mi SSW 21.9 mph 34.5 mph N/A   Partly Cloudy
8:55 PM 37.4 °F 28.2 °F 35.6 °F 93% 30.01 in 6.2 mi SSW 16.1 mph - N/A   Partly Cloudy
9:55 PM 35.6 °F 26.6 °F 33.8 °F 93% 30.01 in 6.2 mi SW 13.8 mph - N/A   Scattered Clouds
10:55 PM 35.6 °F 25.2 °F 30.2 °F 81% 30.04 in 6.2 mi SW 18.4 mph - N/A   Scattered Clouds
11:00 PM 36 °F - 30 °F 72%  in 9 mi SW 18.4 mph - -   Scattered Clouds
11:55 PM 35.6 °F 25.2 °F 28.4 °F 75% 30.04 in 6.2 mi WSW 18.4 mph - N/A   Partly Cloudy